Simultaneous Nadir Overpasses (SNOs) Predictions

Prediction of SNOs between AQUA and NPP Satellite Orbit:

Table of predicted SNOs for the next 14.0 days since TLE Epoch: 9/28/2013
Index Date (AQUA) Time (AQUA) Lat,Lon (AQUA) SZA (AQUA ) Date (NPP) Time (NPP) Lat,Lon (NPP) SZA (NPP ) Distance(km) Time Diff (sec)
1 09/29/2013 05:33:07 -73.94, 150.48 78.69 09/29/2013 05:32:31 -73.93, 150.43 78.64 1.69 36
2 09/29/2013 06:22:05 75.33, -38.40 99.85 09/29/2013 06:22:46 75.33, -38.43 99.82 1.09 41
3 10/01/2013 21:49:26 -74.44, -92.47 78.25 10/01/2013 21:49:18 -74.43, -92.51 78.23 1.35 8
4 10/01/2013 22:38:26 75.72, 78.58 100.39 10/01/2013 22:39:35 75.72, 78.55 100.34 0.65 69
5 10/04/2013 13:16:39 73.80,-145.70 103.37 10/04/2013 13:15:42 73.81,-145.63 103.40 2.36 57
6 10/04/2013 14:05:40 -75.16, 25.25 78.06 10/04/2013 14:06:00 -75.17, 25.30 78.09 1.52 20
7 10/07/2013 05:32:58 74.25, -28.78 103.85 10/07/2013 05:32:30 74.26, -28.74 103.86 1.32 28
8 10/07/2013 06:22:00 -75.50, 142.07 77.47 10/07/2013 06:22:49 -75.51, 142.11 77.52 1.10 49
9 10/09/2013 21:01:19 -69.99, -88.25 70.99 10/09/2013 21:00:05 -70.06, -88.58 70.86 14.41 74
10 10/09/2013 21:49:12 74.88, 88.65 104.14 10/09/2013 21:49:13 74.89, 88.74 104.11 2.78 1




NCC Satellite Simultaneous Nadir Overpasses (SNOs) Prediction Service
